SCP
0 0 0 0 0 0 0 0 0 0 0 0 0 0 0 0 0 0 0 0 0 0 0 0 0 0 0 0 0 0 0 0 0 0 0 0 0 0
0 0 0 0 0 0 0 0 0 0 0 0 0 0 0 0 0 0 0 0 0 0 0 0 0 0 0 0 0 0 0 0 0 0 0 0 0 0
0 0 0 0 0 0 0 0 0 0 0 0 0 0 0 0 0 0 0 0 0 0 0 0 0 0 0 0 0 0 0 0 0 0 0 0 0 0
0 0 0 0 0 0 0 0 0 0 0 0 0 0 0 0 0 0 0 0 0 0 0 0 0 0 0 0 0 0 0 0 0 0 0 0 0 0
0 0 0 0 0 0 0 0 0 0 0 0 0 0 0 0 0 0 0 0 0 0 0 0 0 0 0 0 0 0 0 0 0 0 0 0 0 0
0 0 0 0 0 0 0 0 0 0 0 0 0 0 0 0 0 0 0 0 0 0 0 0 0 0 0 0 0 0 0 0 0 0 0 0 0 0
0 0 0 0 0 0 0 0 0 0 0 0 0 0 0 0 0 0 0 0 0 0 0 0 0 0 0 0 0 0 0 0 0 0 0 0 0 0
0 0 0 0 0 0 0 0 0 0 0 0 0 0 0 0 0 0 0 0 0 0 0 0 0 0 0 0 0 0 0 0 0 0 0 0 0 0
0 0 0 0 0 0 0 0 0 0 0 0 0 0 0 0 0 0 0 0 0 0 0 0 0 0 0 0 0 0 0 0 0 0 0 0 0 0
0 0 0 0 0 0 0 0 0 0 0 0 0 0 0 0 0 0 0 0 0 0 0 0 0 0 0 0 0 0 0 0 0 0 0 0 0 0
0 0 0 0 0 0 0 0 0 0 0 0 0 0 0 0 0 0 0 0 0 0 0 0 0 0 0 0 0 0 0 0 0 0 0 0 0 0
0 0 0 0 0 0 0 0 0 0 0 0 0 0 0 0 0 0 0 0 0 0 0 0 0 0 0 0 0 0 0 0 0 0 0 0 0 0
0 0 0 0 0 0 0 0 0 0 0 0 0 0 0 0 0 0 0 0 0 0 0 0 0 0 0 0 0 0 0 0 0 0 0 0 0 0
0 0 0 0 0 0 0 0 0 0 0 0 0 0 0 0 0 0 0 0 0 0 0 0 0 0 0 0 0 0 0 0 0 0 0 0 0 0
0 0 0 0 0 0 0 0 0 0 0 0 0 0 0 0 0 0 0 0 0 0 0 0 0 0 0 0 0 0 0 0 0 0 0 0 0 0
0 0 0 0 0 0 0 0 0 0 0 0 0 0 0 0 0 0 0 0 0 0 0 0 0 0 0 0 0 0 0 0 0 0 0 0 0 0
0 0 0 0 0 0 0 0 0 0 0 0 0 0 0 0 0 0 0 0 0 0 0 0 0 0 0 0 0 0 0 0 0 0 0 0 0 0
0 0 0 0 0 0 0 0 0 0 0 0 0 0 0 0 0 0 0 0 0 0 0 0 0 0 0 0 0 0 0 0 0 0 0 0 0 0
0 0 0 0 0 0 0 0 0 0 0 0 0 0 0 0 0 0 0 0 0 0 0 0 0 0 0 0 0 0 0 0 0 0 0 0 0 0
0 0 0 0 0 0 0 0 0 0 0 0 0 0 0 0 0 0 0 0 0 0 0 0 0 0 0 0 0 0 0 0 0 0 0 0 0 0
0 0 0 0 0 0 0 0 0 0 0 0 0 0 0 0 0 0 0 0 0 0 0 0 0 0 0 0 0 0 0 0 0 0 0 0 0 0
0 0 0 0 0 0 0 0 0 0 0 0 0 0 0 0 0 0 0 0 0 0 0 0 0 0 0 0 0 0 0 0 0 0 0 0 0 0
0 0 0 0 0 0 0 0 0 0 0 0 0 0 0 0 0 0 0 0 0 0 0 0 0 0 0 0 0 0 0 0 0 0 0 0 0 0
Wind_Speed
5 5 3 3 2 2 2 3 4 4 4 3 3 3 2 1 1 0 1 4 5 6 6 7 7 8 8 8 9 9 7 6 5 5 5 5 4 4
3 4 4 3 2 2 2 3 3 4 3 1 1 2 2 2 2 1 2 4 4 5 6 6 6 7 8 8 9 9 9 9 8 7 6 7 7 7
5 5 4 4 3 2 2 3 3 4 4 1 1 2 2 3 2 2 2 2 3 5 5 6 6 7 8 8 8 9 9 9 9 9 9 9 9 8
6 6 5 3 3 3 2 3 3 3 3 3 2 2 2 2 3 2 2 1 2 4 5 6 6 7 8 8 8 8 8 9 9 10 10 9 9 9
6 6 6 5 5 3 3 3 2 2 2 2 2 2 2 2 2 2 2 1 2 2 4 4 5 6 7 8 8 8 8 8 9 10 10 10 9 9
4 4 4 4 4 4 3 3 3 3 3 2 2 2 2 2 3 3 2 2 1 1 3 3 5 6 6 7 7 7 8 8 8 9 9 9 8 8
4 4 3 3 3 2 2 3 4 3 3 3 3 3 3 3 4 3 3 3 2 1 1 1 1 2 2 3 4 5 6 6 7 7 8 8 8 8
5 4 4 4 5 4 3 3 2 3 4 3 3 4 4 4 4 4 4 4 3 3 2 2 1 1 1 1 3 3 4 5 5 6 6 7 7 7
6 5 4 4 5 4 4 4 3 1 2 3 4 4 4 5 5 5 5 3 2 3 2 2 2 2 1 1 1 2 3 4 4 4 5 5 5 5
5 5 5 5 4 5 4 3 2 2 1 2 2 2 2 3 5 4 4 4 3 2 2 2 2 2 2 1 1 2 2 2 2 3 3 3 3 3
5 5 5 5 7 7 5 4 3 3 3 2 2 2 2 3 4 4 5 4 3 3 2 2 2 2 2 2 1 1 2 2 2 2 2 1 1 1
4 5 6 6 8 8 6 5 5 4 4 4 4 4 4 5 5 3 4 3 2 3 4 3 2 2 2 2 2 2 3 3 2 2 2 2 2 2
5 4 5 9 9 9 7 5 5 4 4 4 3 3 3 3 2 2 1 1 2 1 3 3 2 2 2 2 2 2 2 2 2 2 3 3 3 3
5 4 5 10 10 9 7 6 8 6 3 3 3 3 3 3 2 2 2 2 2 1 3 3 2 2 2 2 2 3 3 2 2 2 2 4 4 5
4 6 7 9 9 7 8 9 8 5 4 4 4 3 2 3 3 3 3 3 3 2 2 1 2 2 2 2 1 2 2 3 3 3 3 3 3 4
5 7 9 9 6 6 7 7 5 5 5 4 4 3 3 4 3 3 3 3 2 2 2 2 2 3 3 3 3 3 3 3 3 3 3 4 4 4
5 4 5 5 5 5 5 5 5 5 5 4 4 4 4 4 4 4 3 3 3 3 3 3 3 2 3 3 3 4 4 4 4 4 4 4 5 5
7 5 6 6 6 6 6 6 6 6 5 5 5 5 5 5 5 4 4 4 4 4 4 4 4 3 3 5 8 5 4 4 4 4 5 5 5 5
6 5 6 6 6 6 6 6 6 6 5 5 5 5 5 5 5 5 5 5 5 5 4 4 5 4 4 4 5 9 5 4 4 4 5 5 5 4
5 5 5 5 5 5 5 5 5 5 5 6 6 6 6 6 6 6 6 7 6 5 5 6 6 7 6 3 2 4 9 6 4 5 4 4 5 7
5 5 5 5 5 5 5 5 5 5 6 6 6 6 6 6 6 6 6 9 8 6 7 7 6 7 3 2 3 4 5 10 8 5 4 4 4 4
4 5 5 5 5 5 5 5 5 5 6 6 6 6 6 7 7 8 7 7 7 7 7 5 5 6 6 7 7 5 4 5 9 13 12 9 4 4
4 4 4 4 5 4 5 5 6 6 5 6 6 6 6 6 6 7 7 7 7 7 6 6 6 6 7 7 7 6 6 6 5 6 8 13 18 17
Wind_Direction
185 187 191 188 201 217 227 233 239 241 229 186 172 164 155 141 102 97 71 67 69 68 57 48 43 42 37 33 33 32 34 44 62 76 92 97 93 92
175 183 184 184 184 193 209 221 238 250 246 132 151 154 156 140 108 92 79 81 76 78 71 61 55 53 46 41 41 41 44 50 61 76 86 90 86 81
171 176 174 173 180 186 194 211 224 234 242 187 132 149 170 164 144 117 93 87 90 79 79 71 64 59 53 45 45 47 51 52 56 68 79 83 81 81
171 171 170 170 182 186 193 204 213 221 229 215 167 159 170 166 149 132 102 75 81 83 82 77 69 64 59 50 51 53 55 56 58 64 69 73 79 84
174 176 173 178 184 183 189 193 196 205 224 202 168 150 150 158 150 132 128 105 79 83 88 82 75 68 63 56 53 55 57 63 65 66 66 69 73 79
165 168 171 182 184 182 185 188 188 192 191 186 171 164 158 159 174 171 166 155 132 93 88 74 79 73 65 60 55 55 57 66 73 72 70 70 71 75
149 155 161 157 160 181 187 184 189 195 190 188 182 173 173 175 188 176 172 155 150 173 155 113 111 94 74 67 63 61 64 69 73 75 74 72 71 72
159 160 155 160 165 171 174 182 208 210 199 195 199 200 195 189 172 172 164 170 180 174 188 153 159 133 79 54 67 70 78 78 79 79 78 77 74 74
169 166 162 164 171 167 158 157 166 202 245 229 220 214 198 182 174 178 182 188 165 141 180 167 170 169 131 80 60 111 100 89 87 88 85 82 80 76
170 172 170 173 175 171 165 160 153 142 165 220 229 219 204 181 181 176 159 137 110 130 207 180 171 173 161 170 144 156 143 119 110 112 105 93 84 79
166 176 179 183 173 176 175 169 163 142 108 99 83 102 123 153 159 146 154 166 168 164 186 191 157 162 181 183 137 168 188 177 162 153 149 134 113 127
171 179 192 193 180 185 190 184 185 169 153 140 130 124 131 138 156 174 174 179 160 168 171 179 160 163 181 180 191 194 192 188 199 205 205 196 202 238
178 185 188 191 193 194 200 199 188 170 164 159 152 148 143 137 141 137 141 165 171 163 151 161 162 174 178 171 188 200 211 212 211 210 212 215 231 253
187 189 185 189 197 196 198 190 180 176 171 171 177 177 169 154 131 109 91 78 64 92 139 147 158 171 170 183 186 183 206 216 223 227 223 221 232 240
188 187 186 191 196 198 198 193 185 188 185 189 192 187 170 144 136 127 117 105 92 85 106 141 168 170 199 207 188 187 200 212 215 225 229 232 232 229
181 185 190 193 195 195 193 196 195 197 200 205 195 174 158 159 171 169 169 166 166 158 141 156 181 191 207 219 221 221 212 213 210 222 232 240 240 236
162 166 178 182 192 194 197 197 194 194 203 204 194 185 181 181 182 176 180 184 198 188 178 175 180 197 236 235 227 224 218 220 223 220 227 241 240 237
170 183 191 196 200 200 201 201 201 203 203 199 200 198 194 192 188 183 190 201 211 208 196 178 175 186 215 234 221 230 224 222 219 219 225 242 250 238
186 194 199 202 204 204 206 207 207 202 195 198 202 201 199 197 195 195 197 204 213 213 203 188 190 198 218 234 194 206 219 215 213 219 224 232 250 254
195 199 202 203 204 206 208 209 208 200 196 201 204 203 200 200 202 205 204 207 210 209 207 202 205 209 219 241 233 200 212 221 219 225 230 240 257 265
202 205 206 204 203 205 207 207 206 205 202 201 204 203 203 204 209 211 211 211 212 213 217 216 211 202 205 210 240 234 214 216 226 230 227 239 251 249
211 212 210 207 205 204 204 204 206 209 206 207 208 205 205 207 212 213 213 211 212 217 223 215 174 181 197 215 233 239 231 214 225 235 241 236 235 240
219 218 215 211 208 204 204 206 208 211 210 208 207 206 205 208 212 213 214 215 216 214 213 206 194 197 209 219 233 240 240 232 230 230 236 236 241 252